SKYSAT-C8 (42990 NORAD) Tracking and Keplerian Element Data

This shows tracking and keplerian element data for the satellite.

Feedback or suggestion? Click here.




ElementValue
Catalog42990
NameSKYSAT-C8
Epoch Orbit6220
Epoch Day349.21936282
Epoch Year2018
RAAN100.5882
Inclination97.4175
Eccentricity0.0004701
Argument of Perigee188.5525
Mean Anonmoly235.3802
Mean Motion15.2150201
Decay Rate6.97E-06
L11 42990U 17068D 18349.21936282 .00000697 00000-0 34039-4 0 9999
L22 42990 97.4175 100.5882 0004701 188.5525 235.3802 15.21502010 62209

Live tracking and technical data element details for SKYSAT-C8 (NORAD 42990). SKYSAT-C8 can be tracked NOW for your location showing map with azimuth and elevation plus other details from your city location.

Track the satellite on the map from your city or location and see movement details for azimuth, elevation, latitude, longitude, range, height, and movement on the map or in text.







IsCatalogInMostPopularTable: catalog: 42990, numindb: 158
Update: records affected: 1



GetName: 42990 SKYSAT-C8

Hit Count: updated at: Sat, 15 Dec 2018 13:37:39 GMT